{"data":{"norad_id":56524,"intl_designator":"2023-065X","name":"STARLINK-6323","alt_names":[],"object_type":"PAYLOAD","status":"ACTIVE","operator":null,"country":"US","launch_date":"2023-05-14","launch_site_code":"AFETR","launch_vehicle":null,"mission":null,"orbit_class":"UNKNOWN","rcs_meters":null,"size_class":null,"mass_kg":null,"dimensions":null,"purposes":["comms"],"wikipedia_slug":null,"has_3d_model":false,"image_url":null,"decayed_at":null,"tle_current":{"epoch":"2026-05-25T01:07:25.122720Z","epoch_age_seconds":81214,"freshness":"FRESH","line1":"1 56524U 23065X   26145.04681855  .00000409  00000+0  24409-4 0  9998","line2":"2 56524  43.0032 141.5877 0001683 288.2600  71.8069 15.27577268168278","mean_motion":15.27577268,"eccentricity":0.0001683,"inclination_deg":43.0032,"raan_deg":141.5877,"arg_perigee_deg":288.26,"mean_anomaly_deg":71.8069,"bstar":2.4409e-5,"rev_number":16827,"period_min":94.266917305292,"perigee_km":481.90253764592,"apogee_km":484.21201563943,"semimajor_km":6861.1942766427,"source":"CELESTRAK","updated_at":"2026-05-25T13:38:18.110341Z"}}}